天目一号 10星 (TIANMU-1 10)

导读

TIANMU-1 10(天目一号010星)由中国于北京时间2023年7月20日发射,是天目一号气象星座第三批组网卫星中的一颗。该卫星运行于520公里高度太阳同步轨道,依托导航信号折射反射分析实现气象探测,为全球数值天气预报、台风监测等提供商业气象数据支撑,服务国计民生与国家气象战略。

基本信息
目录编号:
57402
目录名称:
TIANMU-1 10
国际标识:
2023-101D
轨道中心:
EARTH
卫星名称:
天目一号 10星
卫星全名:
天目一号 10星 (TIANMU-1 10)
卫星状态:
在轨 (已飞行1058 天)
发射日期:
2023-07-20 UTC
国别 :
中国 (CN)
星等 :
--
轨道信息
数据来源 国际轨道数据
星历时间: 2026-06-12T13:49:41+0800
14小时前
查看轨道信息
半长轴: 6854.679km
偏心率: 0.0005872
轨道倾角: 97.263°
近地点辐角 139.058°
升交点赤经 214.260°
平近点角 221.110°
近地点: 472.516km
远地点: 480.568km
周期: 94.133分钟
每日圈数: 15.297558
详细信息
覆盖范围:
全球
运营商:
中国航天科工集团有限公司
运营商所在国:
中国
制造商(研发单位):
中国航天科工集团有限公司
制造商所在国:
中国
使用方式:
暂无
卫星简介
天目一号气象星座,是由中国航天科工集团落户西部(重庆)科学城西永微电园企业研制,主要用于获取全球大气环境要素信息,建成后可实现全球全天候海洋、大气层、电离层的立体化、一体化探测。该卫星仍在工作。
2D轨道图
3D轨道图
轨道高度分析图
轨道倾角分析图
轨道综合分析图
查看轨道综合分析图